EW4363 Weather Reports


Display with metric or nautical units.
time (UTC)temp
F
wind
direction
speed
MPH
gust
MPH
rain 1hr
in
rain 24hr
in
rain mn
in
humidity
%
barometer
mb
20260831163305 87 321 1.0 7.0 0.00 0.00 0.00 57 1016.9
20260831162805 87 324 2.0 7.0 0.00 0.00 0.00 57 1017.0
20260831162306 86 326 1.0 5.0 0.00 0.00 0.00 57 1017.0
20260831161805 87 298 3.0 7.0 0.00 0.00 0.00 57 1017.0
20260831160804 86 306 2.0 6.0 0.00 0.00 0.00 58 1017.0
20260831155804 86 318 2.0 6.0 0.00 0.00 0.00 58 1017.0
20260831154805 86 322 2.0 3.0 0.00 0.00 0.00 60 1017.0
20260831154304 85 312 2.0 3.0 0.00 0.00 0.00 61 1017.1
20260831153805 85 323 2.0 8.0 0.00 0.00 0.00 61 1017.1
20260831153305 85 320 3.0 12.0 0.00 0.00 0.00 61 1017.1
20260831152804 85 307 3.0 10.0 0.00 0.00 0.00 60 1017.1
20260831152306 85 314 2.0 7.0 0.00 0.00 0.00 60 1017.2
20260831151304 86 319 3.0 7.0 0.00 0.00 0.00 60 1017.1
20260831150805 86 328 3.0 7.0 0.00 0.00 0.00 60 1017.1
20260831150305 86 320 2.0 7.0 0.00 0.00 0.00 60 1017.0
20260831145804 86 321 2.0 6.0 0.00 0.00 0.00 59 1017.1
20260831145306 86 311 2.0 5.0 0.00 0.00 0.00 59 1017.0
20260831144804 87 318 2.0 7.0 0.00 0.00 0.00 58 1017.0
20260831144305 87 326 2.0 7.0 0.00 0.00 0.00 58 1017.0
20260831143805 87 319 1.0 7.0 0.00 0.00 0.00 57 1017.0
20260831143306 88 323 3.0 5.0 0.00 0.00 0.00 56 1016.9
20260831142305 88 322 1.0 7.0 0.00 0.00 0.00 55 1017.1
20260831141804 89 324 3.0 9.0 0.00 0.00 0.00 54 1017.0
20260831140303 90 313 3.0 7.0 0.00 0.00 0.00 54 1017.1
20260831135804 89 317 3.0 5.0 0.00 0.00 0.00 54 1017.1
20260831135306 90 317 3.0 9.0 0.00 0.00 0.00 54 1017.0
20260831134803 90 319 3.0 8.0 0.00 0.00 0.00 54 1017.1
20260831134304 90 313 3.0 10.0 0.00 0.00 0.00 53 1017.0
20260831133803 90 315 3.0 9.0 0.00 0.00 0.00 53 1017.1
20260831133304 90 314 2.0 8.0 0.00 0.00 0.00 53 1017.1
20260831132803 90 323 3.0 8.0 0.00 0.00 0.00 52 1017.1
20260831132306 91 317 4.0 9.0 0.00 0.00 0.00 51 1017.1
20260831131804 91 323 3.0 12.0 0.00 0.00 0.00 51 1017.1
20260831131304 91 318 3.0 9.0 0.00 0.00 0.00 50 1017.0
20260831130303 91 324 2.0 7.0 0.00 0.00 0.00 50 1017.1
20260831125804 91 321 3.0 7.0 0.00 0.00 0.00 51 1017.1
20260831125306 91 310 3.0 6.0 0.00 0.00 0.00 50 1017.2
20260831124804 91 322 3.0 9.0 0.00 0.00 0.00 51 1017.2
20260831124303 91 315 3.0 8.0 0.00 0.00 0.00 50 1017.2
20260831123303 91 323 3.0 6.0 0.00 0.00 0.00 49 1017.2
20260831122804 91 326 2.0 5.0 0.00 0.00 0.00 49 1017.3
20260831122305 91 326 1.0 6.0 0.00 0.00 0.00 49 1017.3
20260831121804 92 310 2.0 6.0 0.00 0.00 0.00 49 1017.3
20260831121304 92 318 2.0 9.0 0.00 0.00 0.00 48 1017.3
20260831120803 92 317 1.0 6.0 0.00 0.00 0.00 47 1017.4
20260831120303 92 320 2.0 5.0 0.00 0.00 0.00 48 1017.4
20260831115803 92 326 2.0 6.0 0.00 0.00 0.00 48 1017.5
20260831114803 91 272 0.0 2.0 0.00 0.00 0.00 48 1017.6
20260831114304 90 325 2.0 5.0 0.00 0.00 0.00 48 1017.7
20260831113803 90 322 2.0 7.0 0.00 0.00 0.00 48 1017.7
20260831113304 90 325 1.0 3.0 0.00 0.00 0.00 48 1017.7
20260831112803 90 289 1.0 5.0 0.00 0.00 0.00 47 1017.7
20260831112307 90 328 0.0 3.0 0.00 0.00 0.00 47 1017.7
20260831111303 90 250 0.0 2.0 0.00 0.00 0.00 48 1017.8
20260831110803 90 274 1.0 5.0 0.00 0.00 0.00 48 1017.9
20260831110303 90 321 0.0 3.0 0.00 0.00 0.00 48 1017.9
20260831105804 90 328 1.0 3.0 0.00 0.00 0.00 48 1018.0
20260831105306 89 282 0.0 2.0 0.00 0.00 0.00 48 1018.0
20260831104804 89 330 1.0 5.0 0.00 0.00 0.00 49 1018.1
20260831104303 89 255 1.0 3.0 0.00 0.00 0.00 49 1018.1
20260831103804 88 314 1.0 5.0 0.00 0.00 0.00 49 1018.1
20260831102305 88 328 2.0 3.0 0.00 0.00 0.00 48 1018.2
20260831101803 87 274 1.0 3.0 0.00 0.00 0.00 46 1018.2
20260831100304 86 305 0.0 3.0 0.00 0.00 0.00 47 1018.3
20260831095804 86 288 0.0 3.0 0.00 0.00 0.00 46 1018.3
20260831095306 86 331 0.0 2.0 0.00 0.00 0.00 45 1018.4
20260831094804 86 275 1.0 2.0 0.00 0.00 0.00 43 1018.4
20260831094303 85 310 2.0 3.0 0.00 0.00 0.00 45 1018.4
20260831093303 84 260 0.0 2.0 0.00 0.00 0.00 48 1018.5
20260831092803 83 288 0.0 1.0 0.00 0.00 0.00 49 1018.5
20260831092306 83 274 1.0 2.0 0.00 0.00 0.00 50 1018.5
20260831091804 82 281 1.0 2.0 0.00 0.00 0.00 50 1018.5
20260831091305 82 269 0.0 2.0 0.00 0.00 0.00 52 1018.6
20260831090804 82 272 0.0 2.0 0.00 0.00 0.00 53 1018.6
20260831090304 82 267 1.0 2.0 0.00 0.00 0.00 53 1018.6
20260831085804 81 270 0.0 2.0 0.00 0.00 0.00 56 1018.6
20260831085306 81 269 0.0 1.0 0.00 0.00 0.00 57 1018.5
20260831084804 80 274 0.0 3.0 0.00 0.00 0.00 57 1018.5
20260831084303 79 280 0.0 1.0 0.00 0.00 0.00 55 1018.5
20260831083804 78 280 1.0 3.0 0.00 0.00 0.00 53 1018.5
20260831083303 78 268 0.0 3.0 0.00 0.00 0.00 51 1018.5
20260831082803 77 317 0.0 2.0 0.00 0.00 0.00 52 1018.5
20260831082306 77 266 1.0 2.0 0.00 0.00 0.00 51 1018.5
20260831080803 75 258 1.0 3.0 0.00 0.00 0.00 53 1018.4
20260831080304 75 274 0.0 3.0 0.00 0.00 0.00 54 1018.3
20260831075804 74 281 0.0 1.0 0.00 0.00 0.00 56 1018.3
20260831075306 72 272 1.0 3.0 0.00 0.00 0.00 56 1018.3
20260831074804 72 269 1.0 2.0 0.00 0.00 0.00 57 1018.3
20260831074304 71 267 1.0 6.0 0.00 0.00 0.00 58 1018.3
20260831073303 70 274 1.0 3.0 0.00 0.00 0.00 58 1018.3
20260831072804 70 272 2.0 6.0 0.00 0.00 0.00 59 1018.3
20260831072306 69 273 3.0 7.0 0.00 0.00 0.00 59 1018.2
20260831071804 69 272 4.0 10.0 0.00 0.00 0.00 59 1018.2
20260831070804 69 279 3.0 7.0 0.00 0.00 0.00 60 1018.2
20260831070303 68 279 2.0 7.0 0.00 0.00 0.00 60 1018.1
20260831065803 68 270 2.0 7.0 0.00 0.00 0.00 61 1018.1
20260831065306 68 278 2.0 6.0 0.00 0.00 0.00 61 1018.1
20260831064804 67 280 3.0 7.0 0.00 0.00 0.00 61 1018.1
20260831064304 67 268 2.0 8.0 0.00 0.00 0.00 62 1018.0
20260831063804 67 273 3.0 6.0 0.00 0.00 0.00 62 1017.9
20260831063304 67 277 2.0 6.0 0.00 0.00 0.00 63 1017.8
20260831062804 67 276 2.0 3.0 0.00 0.00 0.00 63 1017.9
20260831061803 66 279 3.0 7.0 0.00 0.00 0.00 64 1017.7
20260831061304 66 275 3.0 9.0 0.00 0.00 0.00 65 1017.6
20260831060804 66 277 3.0 9.0 0.00 0.00 0.00 65 1017.5
20260831060303 66 274 3.0 7.0 0.00 0.00 0.00 65 1017.5
20260831055804 65 276 3.0 9.0 0.00 0.00 0.00 65 1017.5
20260831055306 66 274 3.0 7.0 0.00 0.00 0.00 64 1017.4
20260831054804 66 278 2.0 6.0 0.00 0.00 0.00 64 1017.3
20260831054304 66 277 3.0 6.0 0.00 0.00 0.00 64 1017.3
20260831053803 66 279 4.0 9.0 0.00 0.00 0.00 64 1017.3
20260831053304 66 277 3.0 8.0 0.00 0.00 0.00 64 1017.2
20260831052803 66 269 2.0 6.0 0.00 0.00 0.00 64 1017.1
20260831051803 66 276 3.0 7.0 0.00 0.00 0.00 64 1017.0
20260831051305 66 275 3.0 8.0 0.00 0.00 0.00 64 1016.9
20260831050304 66 272 2.0 5.0 0.00 0.00 0.00 64 1016.8
20260831045804 66 276 2.0 5.0 0.00 0.00 0.00 64 1016.8
20260831044804 66 273 2.0 5.0 0.00 0.00 0.00 64 1016.8
20260831044303 66 274 3.0 6.0 0.00 0.00 0.00 63 1016.7
20260831043804 67 274 1.0 6.0 0.00 0.00 0.00 63 1016.8
20260831043304 67 273 3.0 6.0 0.00 0.00 0.00 63 1016.8
20260831042805 67 273 2.0 6.0 0.00 0.00 0.00 63 1016.8
20260831041804 67 273 3.0 8.0 0.00 0.00 0.00 64 1016.8
20260831041304 66 279 2.0 6.0 0.00 0.00 0.00 66 1016.8
20260831040804 66 321 0.0 0.0 0.00 0.00 0.00 68 1016.7
20260831035804 66 321 0.0 0.0 0.00 0.00 0.00 68 1016.6
20260831035306 66 321 0.0 0.0 0.00 0.00 0.00 68 1016.7
20260831034303 67 321 0.0 0.0 0.00 0.00 0.00 68 1016.7
20260831033804 67 321 0.0 0.0 0.00 0.00 0.00 68 1016.6
20260831033304 67 321 0.0 1.0 0.00 0.00 0.00 67 1016.6
20260831032804 68 321 0.0 0.0 0.00 0.00 0.00 66 1016.6
20260831032306 68 321 0.0 1.0 0.00 0.00 0.00 65 1016.6
20260831031804 69 269 0.0 1.0 0.00 0.00 0.00 60 1016.7
20260831031304 69 274 1.0 3.0 0.00 0.00 0.00 59 1016.6
20260831030304 69 270 0.0 2.0 0.00 0.00 0.00 59 1016.6
20260831025804 69 267 0.0 2.0 0.00 0.00 0.00 59 1016.6
20260831025306 69 268 1.0 3.0 0.00 0.00 0.00 58 1016.5
20260831024804 69 263 0.0 2.0 0.00 0.00 0.00 59 1016.5
20260831024304 69 266 0.0 1.0 0.00 0.00 0.00 60 1016.5
20260831023804 69 282 0.0 2.0 0.00 0.00 0.00 59 1016.5
20260831023304 69 268 1.0 3.0 0.00 0.00 0.00 59 1016.5
20260831022804 69 264 1.0 5.0 0.00 0.00 0.00 59 1016.4
20260831022306 69 269 0.0 2.0 0.00 0.00 0.00 60 1016.4
20260831021804 69 249 0.0 1.0 0.00 0.00 0.00 60 1016.4
20260831021304 70 249 0.0 1.0 0.00 0.00 0.00 63 1016.4
20260831020803 70 249 0.0 0.0 0.00 0.00 0.00 60 1016.4
20260831020304 70 249 0.0 1.0 0.00 0.00 0.00 58 1016.4
20260831015804 70 258 0.0 2.0 0.00 0.00 0.00 58 1016.4
20260831014804 70 274 0.0 1.0 0.00 0.00 0.00 59 1016.4
20260831014304 70 274 0.0 1.0 0.00 0.00 0.00 59 1016.4
20260831013803 70 273 1.0 5.0 0.00 0.00 0.00 58 1016.4
20260831012805 70 273 2.0 6.0 0.00 0.00 0.00 59 1016.5
20260831012306 70 262 0.0 2.0 0.00 0.00 0.00 61 1016.5
20260831011805 69 252 0.0 2.0 0.00 0.00 0.00 63 1016.4
20260831010804 69 331 0.0 0.0 0.00 0.00 0.00 68 1016.3
20260831010304 70 331 0.0 0.0 0.00 0.00 0.00 69 1016.3
20260831005804 70 331 0.0 0.0 0.00 0.00 0.00 71 1016.2
20260831005306 70 331 0.0 0.0 0.00 0.00 0.00 70 1016.2
20260831004804 70 331 0.0 0.0 0.00 0.00 0.00 70 1016.2
20260831004305 70 331 0.0 0.0 0.00 0.00 0.00 71 1016.2
20260831003804 70 331 0.0 0.0 0.00 0.00 0.00 71 1016.2
20260831003304 70 331 0.0 1.0 0.00 0.00 0.00 71 1016.2
20260831002804 71 279 0.0 1.0 0.00 0.00 0.00 70 1016.2
20260831002306 72 279 0.0 1.0 0.00 0.00 0.00 67 1016.1
20260831001804 72 279 0.0 1.0 0.00 0.00 0.00 61 1016.0
20260831001305 72 279 0.0 1.0 0.00 0.00 0.00 55 1016.0
20260831000805 72 274 1.0 3.0 0.00 0.00 0.00 56 1016.0
20260831000304 71 269 1.0 3.0 0.00 0.00 0.00 58 1016.1
20260830234804 72 281 0.0 0.0 0.00 0.00 0.00 65 1016.0
20260830234304 72 281 0.0 0.0 0.00 0.00 0.00 64 1016.0
20260830233804 72 281 0.0 0.0 0.00 0.00 0.00 63 1016.0
20260830233304 73 281 0.0 0.0 0.00 0.00 0.00 67 1016.1
20260830232804 73 281 0.0 0.0 0.00 0.00 0.00 63 1016.2
20260830232306 73 280 0.0 2.0 0.00 0.00 0.00 64 1016.2
20260830231804 73 260 0.0 0.0 0.00 0.00 0.00 68 1016.3
20260830231304 73 260 0.0 1.0 0.00 0.00 0.00 68 1016.1
20260830230804 73 260 0.0 1.0 0.00 0.00 0.00 68 1016.1
20260830230304 73 287 0.0 0.0 0.00 0.00 0.00 67 1016.1
20260830225804 73 287 0.0 0.0 0.00 0.00 0.00 68 1016.1
20260830224804 73 251 0.0 1.0 0.00 0.00 0.00 66 1016.1
20260830224304 73 251 0.0 2.0 0.00 0.00 0.00 66 1016.1
20260830223804 73 321 0.0 0.0 0.00 0.00 0.00 68 1016.1
20260830223304 73 320 0.0 0.0 0.00 0.00 0.00 65 1016.1
20260830222804 74 320 0.0 0.0 0.00 0.00 0.00 67 1016.0
20260830222306 74 333 0.0 0.0 0.00 0.00 0.00 68 1016.0
20260830221305 74 335 0.0 0.0 0.00 0.00 0.00 66 1016.0
20260830220813 74 335 0.0 0.0 0.00 0.00 0.00 66 1015.9
20260830220305 74 335 0.0 0.0 0.00 0.00 0.00 62 1015.9
20260830215804 75 335 0.0 0.0 0.00 0.00 0.00 61 1015.9
20260830215305 75 335 0.0 0.0 0.00 0.00 0.00 61 1015.9
20260830214804 76 335 0.0 0.0 0.00 0.00 0.00 60 1015.8
20260830214305 76 335 0.0 1.0 0.00 0.00 0.00 61 1015.8
20260830213804 76 290 0.0 0.0 0.00 0.00 0.00 65 1015.8
20260830213305 76 289 0.0 2.0 0.00 0.00 0.00 63 1015.7
20260830212804 76 289 0.0 1.0 0.00 0.00 0.00 62 1015.7
20260830212306 76 290 0.0 1.0 0.00 0.00 0.00 61 1015.7
20260830211305 76 253 0.0 0.0 0.00 0.00 0.00 59 1015.6
20260830210804 76 253 0.0 0.0 0.00 0.00 0.00 58 1015.7
20260830210304 77 253 0.0 0.0 0.00 0.00 0.00 57 1015.7
20260830205805 77 253 0.0 0.0 0.00 0.00 0.00 58 1015.7
20260830205306 77 253 0.0 0.0 0.00 0.00 0.00 57 1015.7
20260830204804 77 253 0.0 0.0 0.00 0.00 0.00 57 1015.7
20260830204304 77 253 0.0 0.0 0.00 0.00 0.00 55 1015.6
20260830203804 78 253 0.0 2.0 0.00 0.00 0.00 54 1015.6
20260830203305 78 336 0.0 0.0 0.00 0.00 0.00 56 1015.5
20260830202804 78 336 0.0 0.0 0.00 0.00 0.00 57 1015.5
20260830202306 78 336 0.0 0.0 0.00 0.00 0.00 55 1015.4
20260830201804 78 336 0.0 0.0 0.00 0.00 0.00 54 1015.4
20260830201304 79 336 0.0 1.0 0.00 0.00 0.00 53 1015.4
20260830200804 79 336 0.0 0.0 0.00 0.00 0.00 52 1015.4
20260830200304 79 336 0.0 0.0 0.00 0.00 0.00 51 1015.3
20260830195806 79 336 0.0 0.0 0.00 0.00 0.00 49 1015.3
20260830195305 80 336 0.0 0.0 0.00 0.00 0.00 49 1015.3
20260830194805 80 336 0.0 0.0 0.00 0.00 0.00 48 1015.3
20260830194305 80 336 0.0 1.0 0.00 0.00 0.00 47 1015.2
20260830193804 80 338 0.0 0.0 0.00 0.00 0.00 46 1015.1
20260830193304 81 338 0.0 0.0 0.00 0.00 0.00 45 1015.0
20260830192305 81 327 0.0 1.0 0.00 0.00 0.00 44 1014.9
20260830191805 81 249 0.0 1.0 0.00 0.00 0.00 41 1014.9
20260830191304 82 250 0.0 1.0 0.00 0.00 0.00 40 1014.8
20260830190804 82 250 0.0 1.0 0.00 0.00 0.00 38 1014.7
20260830190305 82 252 0.0 0.0 0.00 0.00 0.00 38 1014.7
20260830185306 83 252 0.0 3.0 0.00 0.00 0.00 37 1014.6
20260830184805 83 254 1.0 3.0 0.00 0.00 0.00 37 1014.5
20260830184304 83 251 1.0 1.0 0.00 0.00 0.00 36 1014.5
20260830183304 84 328 0.0 2.0 0.00 0.00 0.00 35 1014.4
20260830182804 84 313 1.0 3.0 0.00 0.00 0.00 34 1014.4
20260830181304 85 287 1.0 5.0 0.00 0.00 0.00 33 1014.4
20260830180804 85 301 2.0 5.0 0.00 0.00 0.00 33 1014.3
20260830180304 85 325 0.0 3.0 0.00 0.00 0.00 33 1014.3
20260830175306 86 293 3.0 7.0 0.00 0.00 0.00 32 1014.3
20260830174804 87 322 2.0 9.0 0.00 0.00 0.00 31 1014.2
20260830174304 87 322 2.0 5.0 0.00 0.00 0.00 30 1014.2
20260830173804 88 336 1.0 6.0 0.00 0.00 0.00 30 1014.2
20260830172803 89 317 1.0 3.0 0.00 0.00 0.00 30 1014.2
20260830172306 89 324 2.0 6.0 0.00 0.00 0.00 30 1014.2
20260830171803 89 314 1.0 8.0 0.00 0.00 0.00 30 1014.1
20260830171305 89 326 2.0 10.0 0.00 0.00 0.00 31 1014.2
20260830170804 89 310 3.0 7.0 0.00 0.00 0.00 31 1014.1
20260830170304 90 289 3.0 6.0 0.00 0.00 0.00 31 1014.0
20260830165804 90 326 1.0 6.0 0.00 0.00 0.00 31 1013.9
20260830165306 90 324 3.0 6.0 0.00 0.00 0.00 32 1013.9
20260830164804 90 316 3.0 9.0 0.00 0.00 0.00 32 1013.9
20260830164304 90 311 3.0 7.0 0.00 0.00 0.00 32 1014.0
20260830163804 90 285 3.0 7.0 0.00 0.00 0.00 32 1014.0